Location: Antin
(43.3330°N, 0.2804°E)
Time: 19:25:56
(UTC+00:00)

SME Rocket - Pass Details

Date: 10 December 2023
Orbit: 550 x 2645 km, 99.9° (Epoch: 20 February)

Event Time Altitude Azimuth Distance (km) Brightness Sun altitude
Rises 17:30:32 0° 127° (SE) 3,581 6.6 -11.9°
Reaches altitude 10° 17:32:48 10° 118° (ESE) 2,852 6.1 -12.3°
Maximum altitude 17:38:40 36° 54° (NE) 2,040 5.2 -13.3°
Drops below altitude 10° 17:47:08 10° 354° (N) 4,190 7.2 -14.7°
Sets 17:51:08 0° 348° (NNW) 5,503 7.8 -15.4°
